This demonstration page uses our WeatherBlox Daily Observations layout. Learn more.

39.01783, -85.05884

Hourly Observations for May 15, 2019

Temp ( °F °C ) Dew Point ( °F °C ) Humidity (%) Winds ( mph kmh ) Pressure ( in mb ) Visibility ( mi km ) Precip ( " mm )
12:52 am 00:52 Mostly Clear 49 9.4 45 7.2 86 86 S 6 9 30.01 1016 10 16.0934 0 0
1:52 am 01:52 Mostly Clear 49 9.4 42 5.6 77 77 SSW 6 9 30.01 1016 10 16.0934 0 0
2:52 am 02:52 Mostly Cloudy 51 10.6 42 5.6 71 71 SSW 7 11 30 1016 10 16.0934 0 0
3:52 am 03:52 Mostly Clear 46 7.8 43 6.1 89 89 SSW 6 9 29.99 1016 10 16.0934 0 0
4:52 am 04:52 Mostly Clear 49 9.4 42 5.6 77 77 Calm 29.98 1015 10 16.0934 0 0
5:52 am 05:52 Partly Cloudy 47 8.3 42 5.6 83 83 Calm 29.98 1015 10 16.0934 0 0
6:52 am 06:52 Mostly Cloudy 47 8.3 42 5.6 83 83 S 3 6 30 1016 10 16.0934 0 0
7:52 am 07:52 Mostly Cloudy 52 11.1 45 7.2 77 77 Calm 30.01 1016 10 16.0934 0 0
8:52 am 08:52 Partly Cloudy 59 15 47 8.3 64 64 SSW 6 9 30.01 1016 10 16.0934 0 0
9:52 am 09:52 Cloudy 61 16.1 47 8.3 60 60 Calm 30.02 1017 10 16.0934 0 0
10:52 am 10:52 Cloudy 63 17.2 49 9.4 60 60 SSW 5 7 30.02 1017 10 16.0934 0 0
11:52 am 11:52 Partly Cloudy 69 20.6 46 7.8 44 44 SW 10 17 30.02 1017 10 16.0934 0 0
12:52 pm 12:52 Mostly Cloudy 69 20.6 46 7.8 44 44 SW 8 13 30.01 1016 10 16.0934 0 0
1:52 pm 13:52 Cloudy 69 20.6 44 6.7 41 41 WSW 7 11 29.99 1016 10 16.0934 0 0
2:52 pm 14:52 Cloudy 69 20.6 46 7.8 44 44 SW 8 13 29.99 1016 10 16.0934 0 0
3:52 pm 15:52 Mostly Cloudy 69 20.6 45 7.2 42 42 SW 8 13 29.98 1015 10 16.0934 0 0
4:52 pm 16:52 Mostly Cloudy 69 20.6 47 8.3 45 45 WSW 6 9 29.97 1015 10 16.0934 0 0
5:52 pm 17:52 Cloudy 69 20.6 48 8.9 47 47 WSW 6 9 29.97 1015 10 16.0934 0 0
6:52 pm 18:52 Cloudy 68 20 49 9.4 51 51 SSW 7 11 29.96 1015 10 16.0934 0 0
7:52 pm 19:52 Mostly Sunny 65 18.3 48 8.9 54 54 SSW 5 7 29.96 1015 10 16.0934 0 0
8:52 pm 20:52 Partly Cloudy 63 17.2 48 8.9 58 58 SW 6 9 29.97 1015 10 16.0934 0 0
9:52 pm 21:52 Mostly Clear 59 15 48 8.9 67 67 SSW 7 11 29.97 1015 10 16.0934 0 0
10:52 pm 22:52 Mostly Clear 58 14.4 48 8.9 70 70 SW 6 9 29.98 1015 10 16.0934 0 0
11:52 pm 23:52 Partly Cloudy 54 12.2 49 9.4 83 83 Calm 29.98 1015 10 16.0934 0 0

Powered by AerisWeather